Retour au catalogue

USA 455

ActifMilitaireVLEO
NORAD 62354·PAYLOAD·🇺🇸 United States

Lancé Dec 17, 2024 depuis Vandenberg Space Force Base

Loading…

Prochains Passages (prochaines 24 heures)

TLE

PériméSource: Mike McCants

Époque: Aug 11, 2026, 21:42 UTC

1 62354U 24243Q   26223.90456351 0.00000000  00000-0  00000-0 0    06
2 62354  70.0190 142.0230 0002000  52.3248 307.6752 14.96713386    05

Suivez USA 455 en temps réel avec AllMySat

Download on the App Store